Weather in Zakobyakino

Russia / Yaroslavl Oblast     58°06′15″N   40°43′30″E
temp.,
°C
wind,
m/s
gust,
m/s
humid.,
%
clouds,
%
prec.,
mm/h
press.,
hPa
HPBL,
m
14 august, sun
sun1400:00+19ne116190 0.0 102115
03:00+18ese116346 0.0 102113
06:00+16ne237279 0.0 102257
09:00+21ene125681 0.0 1022275
12:00+23ne1251100 0.0 1022465
15:00+25nne224551 0.0 1022744
18:00+25ne23534 0.0 1021162
21:00+19e237798 0.0 102260
15 august, mon
mon1500:00+19e2373100 0.0 102280
03:00+19e2373100 0.0 102270
06:00+19ese2375100 0.0 102390
09:00+20ese2370100 0.0 1023183
12:00+24s235660 0.0 1024624
15:00+26ssw234519 0.0 10231052
18:00+25e235264 0.0 1023136
21:00+21ese2263100 0.0 102330
16 august, tue
tue1600:00+20se1263100 0.0 102426
03:00+20se2262100 0.0 102549
06:00+19se2368100 0.0 102590
09:00+23se2456100 0.0 1025399
12:00+27se343794 0.0 10242338
15:00+28ese3434100 0.0 10232403
18:00+26e364622 0.0 1022360
21:00+22ese2759100 0.0 1023192
17 august, wed
wed1700:00+20ese266177 0.0 1023151
03:00+16se22725 0.0 102332
06:00+16ese24755 0.0 102395
09:00+23ese24505 0.0 1023529
12:00+27ese34355 0.0 10221746
15:00+28e33325 0.0 10212054
18:00+25e25445 0.0 1021214
21:00+19e23595 0.0 102138
18 august, thu
thu1800:00+17e23663 0.0 102245
03:00+16ese23784 0.0 102240
06:00+16e23800 0.0 102372
09:00+23ese35540 0.0 1023562
12:00+27ese45380 0.0 10231909
15:00+28ese45330 0.0 10222085
18:00+26ese36430 0.0 1023402
21:00+19ese24610 0.0 102362